Regional Weather Roundup
Issued by NWS

Home | Current Version | Previous Version | Text Only | Print | Product List | Glossary Off
Versions: 1 2 3 4 5 6 7 8 9 10 11 12 13 14 15 16 17 18 19 20 21 22 23 24 25 26 27 28 29 30 31 32 33 34 35 36 37 38 39 40 41 42 43 44 45 46 47 48 49

000
ASUS43 KDMX 220507
RWRIA

WEATHER ROUNDUP FOR IOWA
NATIONAL WEATHER SERVICE DES MOINES IA
1100 PM CST SUN DEC 21 2014

NOTE: "FAIR" INDICATES FEW OR NO CLOUDS BELOW 12,000 FEET WITH NO
SIGNIFICANT WEATHER AND/OR OBSTRUCTIONS TO VISIBILITY.

* - THESE STATIONS ARE NOT NWS STATIONS...THUS NOT UNDER NWS
QUALITY CONTROL.  THEY ALSO DO NOT REPORT WEATHER SUCH
AS PRECIPITATION OR FOG.

IAZ001>003-012>014-020>022-031>034-043>046-220600-
   NORTHWEST IOWA

CITY           SKY/WX    TMP DP  RH WIND       PRES   REMARKS
CARROLL *      CLOUDY    41  41 100 S16       29.68F FOG
CHEROKEE *     CLOUDY    39  39 100 S15       29.63F FOG     WCI  31
DENISON *      CLOUDY    41  41 100 S15       29.64S FOG
LE MARS *      CLOUDY    41  41 100 S16G24    29.60S
ORANGE CITY *  CLOUDY    39  37  93 S12       29.59S FOG     WCI  32
SHELDON *      CLOUDY    39  39 100 S17       29.59S FOG     WCI  30
SIOUX CITY     CLOUDY    42  40  92 SE13      29.61S FOG
SPENCER        CLOUDY    39  37  92 S16       29.63F FOG     WCI  30
STORM LAKE *   CLOUDY    39  39 100 S17       29.65S FOG     WCI  30
$$

IAZ055>058-069>071-079>083-090>094-220600-
   SOUTHWEST IOWA

CITY           SKY/WX    TMP DP  RH WIND       PRES   REMARKS
ATLANTIC *     CLOUDY    43  43 100 S15G21    29.69S FOG
AUDUBON *      CLOUDY    41  36  81 S13G22    29.69S HAZE
CLARINDA *     CLOUDY    43  43 100 S14G22    29.72F FOG
COUNCIL BLFS * CLOUDY    43  43 100 S15G24    29.65S FOG
CRESTON *      CLOUDY    41  41 100 S20G25    29.72F FOG
HARLAN  *      CLOUDY    41  41 100 S18       29.70S FOG
LAMONI         LGT RAIN  41  39  93 S13G22    29.76F
RED OAK *      CLOUDY    43  43 100 S14G23    29.69F FOG
SHENANDOAH *   CLOUDY    43  43 100 S16G25    29.70S FOG
$$

IAZ047>049-059>061-072>074-084-220600-
   CENTRAL IOWA

CITY           SKY/WX    TMP DP  RH WIND       PRES   REMARKS
AMES           CLOUDY    41  38  89 S14       29.75S
ANKENY *       CLOUDY    43  41  93 S14       29.76S
CHARITON *     CLOUDY    41  39  93 S20       29.77F
DES MOINES     CLOUDY    43  39  86 S17       29.76F
GRINNELL*      CLOUDY    39  37  93 SE14      29.80F WCI  31
KNOXVILLE *    CLOUDY    41  39  93 S14       29.77F
MARSHALLTOWN   LGT RAIN  39  38  96 S15       29.77F WCI  31
PELLA *        CLOUDY    41  38  91 S13       29.81S
PERRY *        LGT RAIN  43  41  93 S14G22    29.72S
$$

IAZ004>006-015-016-023>025-035-036-220600-
   NORTH CENTRAL IOWA

CITY           SKY/WX    TMP DP  RH WIND       PRES   REMARKS
ALGONA *       CLOUDY    39  39 100 S18G29    29.69S FOG     WCI  30
CLARION *      CLOUDY    39  39 100 S17       29.72F FOG     WCI  30
ESTHERVILLE    CLOUDY    37  37 100 S16       29.65F FOG     WCI  28
FORT DODGE *   CLOUDY    39  37  93 S9        29.71F WCI  33
MASON CITY     CLOUDY    38  37  97 SE16      29.75S FOG     WCI  29
FOREST CITY *  CLOUDY    37  36  93 SE16      29.72F FOG     WCI  28
IOWA FALLS *   DRIZZLE   39  37  93 SE15      29.76F WCI  31
$$

IAZ007>011-017>019-026>030-037>042-050>054-066-220600-
   NORTHEAST IOWA

CITY           SKY/WX    TMP DP  RH WIND       PRES   REMARKS
CEDAR RAPIDS   CLOUDY    37  35  92 SE13      29.85S FOG     WCI  29
CHARLES CITY * CLOUDY    37  37 100 SE17      29.78F FOG     WCI  28
CLINTON *      CLOUDY    34  30  86 SE14      29.95S WCI  24
DECORAH *      CLOUDY    36  36 100 S13G21    29.81S FOG     WCI  27
DUBUQUE        CLOUDY    33  31  92 S14       29.89F FOG     WCI  23
MONTICELLO *   CLOUDY    36  36 100 SE13      29.88S FOG     WCI  27
OELWEIN *      CLOUDY    36  36 100 S16G23    29.83S FOG     WCI  26
WATERLOO       LGT RAIN  37  36  96 S18       29.81S WCI  27
$$

IAZ064-065-067-068-078-220600-
   EAST CENTRAL IOWA

CITY           SKY/WX    TMP DP  RH WIND       PRES   REMARKS
DAVENPORT      CLOUDY    35  30  82 SE17      29.92F WCI  25
IOWA CITY      CLOUDY    37  34  89 SE12      29.89S WCI  29
MT. PLEASANT * CLOUDY    37  34  87 SE14G20   29.89S WCI  29
MUSCATINE *    CLOUDY    39  32  75 SE12      29.90F WCI  32
QUAD CITIES    CLOUDY    36  31  82 SE12G22   29.92S WCI  28
$$

IAZ062-063-075>077-085>089-095>099-220600-
   SOUTHEAST IOWA

CITY           SKY/WX    TMP DP  RH WIND       PRES   REMARKS
BURLINGTON     LGT RAIN  39  33  79 S10       29.90S WCI  32
FAIRFIELD *    CLOUDY    39  36  87 SE13      29.86S WCI  32
FORT MADISON * CLOUDY    39  36  87 SE8       29.90F WCI  34
KEOKUK *       CLOUDY    41  36  81 SE10      29.89S
OSKALOOSA *    CLOUDY    39  37  93 S13       29.83F WCI  32
CENTERVILLE *  CLOUDY    39  39 100 SE13      29.82F WCI  32
OTTUMWA        CLOUDY    40  37  89 S13       29.82F WCI  32
WASHINGTON *   CLOUDY    39  39 100 SE14G20   29.87S WCI  31
$$

ABBREVIATIONS USED IN REMARKS
   TC - TEMPERATURES IN CELSIUS
  WCI - WIND CHILL INDEX
   HX - HEAT INDEX
  VSB - VISIBILITY
$$



USA.gov is the U.S. government's official web portal to all federal, state and local government web resources and services.